Hourly Data Report for August 29, 2014

All times are specified in Local Standard Time (LST). Add 1 hour to adjust for Daylight Saving Time where and when it is observed.

Metadata including Station Name, Province, Latitude, Longitude, Elevation, Climate ID, WMO ID, TC ID
PUVIRNITUQ A
QUEBEC
Latitude: 60°03'08.000" N Longitude: 77°17'15.000" W Elevation: 25.30 m
Climate ID: 7106223 WMO ID: TC ID: YPX
Hourly Data Report for August 28, 2014
Temp Definition
°C

Dew Point Temp Definition
°C

Rel Hum Definition
%

Wind Dir Definition
10's deg
Wind Spd Definition
km/h

Visibility Definition
km

Stn Press Definition
kPa

Hmdx Definition

Wind Chill Definition

Weather Definition

00:00 Legend Double Dagger 6.7 6.0 95 22 8 16.1 101.40 LegendNANA
01:00 Legend Double Dagger 6.6 6.0 96   0 16.1 101.38 LegendNANA
02:00 Legend Double Dagger 4.5 4.4 99 12 9 0.4 101.36 Fog
03:00 Legend Double Dagger 5.3 5.3 100 13 15 0.6 101.33 Fog
04:00 Legend Double Dagger 5.8 5.8 100 12 13 0.6 101.32 Fog
05:00 Legend Double Dagger 5.1 5.1 100 14 15 0.2 101.27 Fog
06:00 Legend Double Dagger 4.6 4.6 100 14 17 0.2 101.28 Fog
07:00 Legend Double Dagger 4.9 4.9 100 14 15 0.2 101.24 Fog
08:00 Legend Double Dagger 7.4 7.3 99 14 15 3.6 101.16 Fog
09:00 Legend Double Dagger 10.8 6.9 77 16 21 16.1 101.09 LegendNANA
10:00 Legend Double Dagger 13.0 5.6 61 17 24 16.1 101.01 LegendNANA
11:00 Legend Double Dagger 15.2 6.3 55 17 30 16.1 100.92 LegendNANA
12:00 Legend Double Dagger 16.5 7.4 54 17 32 16.1 100.80 LegendNANA
13:00 Legend Double Dagger 17.1 6.9 51 19 35 16.1 100.71 LegendNANA
14:00 Legend Double Dagger 14.5 7.3 62 20 28 16.1 100.62 LegendNANA
15:00 Legend Double Dagger 15.8 5.7 51 17 41 16.1 100.49 LegendNANA
16:00 Legend Double Dagger 15.0 4.7 50 18 45 16.1 100.39 LegendNANA
17:00 Legend Double Dagger 12.1 6.9 71 18 50 16.1 100.32 Rain
18:00 Legend Double Dagger 10.8 8.0 83 16 41 16.1 100.22 Rain
19:00 Legend Double Dagger 11.1 8.3 83 16 50 16.1 100.10 Rain
20:00 Legend Double Dagger 10.8 9.1 89 17 52 16.1 99.99 LegendNANA
21:00 Legend Double Dagger 10.4 9.5 94 17 54 11.3 99.88 Rain
22:00 Legend Double Dagger 10.3 9.7 96 19 48 4.8 99.85 Fog
23:00 Legend Double Dagger 10.2 9.6 96 19 46 4.8 99.81 Fog

Notes on Data Quality.

Legend
  • E = Estimated
  • M = Missing
  • NA = Not Available
  • ‡ = Partner data that is not subject to review by the National Climate Archives